sat.trackr.live / text

‹ back to catalog

STARLINK-3563

NORAD 51858 · 2022-022G

PAYLOAD ACTIVE UNKNOWN

§ Identity

Operator
Country
US
Launch date
2022-03-03
Launch site
AFETR
Launch vehicle
Mass (kg)
RCS (m²)

Purposes: comms

External: N2YO · Heavens-Above · Gunter

§ Orbital elements

Epoch: 2026-05-25T01:55:36.897888Z

Period
95.44 min
Inclination
53.2122°
Eccentricity
0.0001214
Mean motion
15.08838563 rev/d
Perigee alt
538.9 km
Apogee alt
540.6 km
Semi-major
6,917.9 km
B*
6.0810e-5
RAAN
36.1911°
Arg perigee
72.8389°
Mean anomaly
287.2736°
Rev number
23,455

§ Raw data

STARLINK-35631 51858U 22022G   26145.08028817  .00000680  00000+0  60810-4 0  99992 51858  53.2122  36.1911 0001214  72.8389 287.2736 15.08838563234551

JSON: /api/v1/satellites/51858 · /tle

For live sub-satellite position, see the globe view (requires WebGL).

§ Visibility from observer

Set your observer location to see the next 7 days of passes ≥ 10°. The values pass through the URL so the page stays shareable.

No JS? Fill the form by hand. The geolocation button needs JavaScript.